Regional Weather Roundup
Issued by NWS Northern Indiana

Home | Current Version | Previous Version | Graphics & Text | Print | Product List | Glossary On
Versions: 1 2 3 4 5 6 7 8 9 10 11 12 13 14 15 16 17 18 19 20 21 22 23 24 25 26 27 28 29 30 31 32 33 34 35 36 37 38 39 40 41 42 43 44 45 46 47 48 49 50
000
ASUS43 KIWX 290000
RWRIWX

KIWX WEATHER ROUNDUP
NATIONAL WEATHER SERVICE NORTHERN INDIANA
800 PM EDT THU JUL 28 2016

NOTE: "FAIR" INDICATES FEW OR NO CLOUDS BELOW 12,000 FEET WITH NO
SIGNIFICANT WEATHER AND/OR OBSTRUCTIONS TO VISIBILITY.

* THESE STATIONS ARE NOT UNDER NWS QUALITY CONTROL. THEY ALSO MAY NOT
  REPORT WEATHER SUCH AS PRECIPITATION OR FOG.

INZ001>027-290100-
NORTHERN INDIANA

CITY           SKY/WX    TMP DP  RH WIND       PRES   REMARKS
GARY*          PTSUNNY   77  75  94 N6        29.90R
KNOX*          CLOUDY    73  59  60 NE5       29.88F
SOUTH BEND     CLOUDY    70  67  90 E7        29.89F
GOSHEN         CLOUDY    72  66  81 N12       29.91R
6HR MIN TEMP:  71; 6HR MAX TEMP:  89;

MONTICELLO*    CLOUDY    83  67  58 CALM      29.87S
6HR MIN TEMP:  81; 6HR MAX TEMP:  85;

WARSAW*        RAIN      77  68  73 E5        29.90R
ANGOLA*        PTCLDY    82  75  78 NE3       29.90S
FORT WAYNE     CLOUDY    79  70  74 N3        29.88S
6HR MIN TEMP:  78; 6HR MAX TEMP:  89; 6HR PCP: TRACE;


$$
INZ028>050-290100-
CENTRAL INDIANA

CITY           SKY/WX    TMP DP  RH WIND       PRES   REMARKS
LAFAYETTE      CLOUDY    83  70  64 CALM      29.87R
6HR MIN TEMP:  80; 6HR MAX TEMP:  86;

KOKOMO*        SUNNY     82  66  57 W3        29.88S
6HR MIN TEMP:  82; 6HR MAX TEMP:  90;

MUNCIE*        CLEAR     83  68  60 NW5       29.88S
6HR MIN TEMP:  83; 6HR MAX TEMP:  89;

INDIANAPOLIS   PTSUNNY   81  70  69 SW10      29.89R
6HR MIN TEMP:  81; 6HR MAX TEMP:  88;


$$
MIZ043>046-050>051-056>058-064>065-071>073-077>080-290100-
SOUTHWEST LOWER MICHIGAN

CITY           SKY/WX    TMP DP  RH WIND       PRES   REMARKS
BATTLE CREEK   CLOUDY    75  67  76 NW20      29.94R
6HR MIN TEMP:  75; 6HR MAX TEMP:  83;

BENTON HARBOR  CLOUDY    76  66  71 E12       29.89F
6HR MIN TEMP:  76; 6HR MAX TEMP:  87;

COLDWATER*     CLOUDY    79  67  67 N5        29.91S
6HR MIN TEMP:  79; 6HR MAX TEMP:  83;

HILLSDALE*     CLOUDY    79  65  62 N5        29.92R
6HR MIN TEMP:  59; 6HR MAX TEMP:  87;

HOLLAND        CLOUDY    75  71  87 E7        29.92F
6HR MIN TEMP:  68; 6HR MAX TEMP:  87; 6HR PCP:  0.07;

GRAND RAPIDS   CLOUDY    71  66  84 NE8       29.94S
6HR MIN TEMP:  71; 6HR MAX TEMP:  85; 6HR PCP:  0.01;

KALAMAZOO      CLOUDY    72  67  84 N15       29.93F
6HR MIN TEMP:  72; 6HR MAX TEMP:  88; 6HR PCP:  0.13;

STURGIS*       LGT RAIN  73  69  87 NW13G23   29.92R
6HR MIN TEMP:  73; 6HR MAX TEMP:  84;

THREE RIVERS*  LGT RAIN  73  69  85 W8        29.93R
6HR MIN TEMP:  73; 6HR MAX TEMP:  86;


$$
OHZ001>008-015>018-024>025-290100-
NORTHWEST OHIO

CITY           SKY/WX    TMP DP  RH WIND       PRES   REMARKS
DEFIANCE       CLEAR     85  66  53 NE3       29.89R
6HR MIN TEMP:  83; 6HR MAX TEMP:  88;

FINDLAY        MOCLDY    80  63  55 E6        29.89R
6HR MIN TEMP:  80; 6HR MAX TEMP:  88;

TOLEDO EXPRESS MOCLDY    82  68  62 NE5       29.89R
6HR MIN TEMP:  82; 6HR MAX TEMP:  86;

TOLEDO METCALF PTCLDY    82  71  69 E5        29.90R
6HR MIN TEMP:  82; 6HR MAX TEMP:  85;

LIMA           CLEAR     81  69  67 N6        29.89R
6HR MIN TEMP:  81; 6HR MAX TEMP:  86;


$$
AND FOR LAKE MICHIGAN COASTAL AND OPEN LAKE BUOY OBSERVATIONS

STATION/POSITION TEMP    WIND        PRES    VSBY  WAVE
                 AIR SEA DIR/SP/G                  HT/PER
                 (F)     (DEG/KT/KT) (MB)    (MI)  (FT/S)
CALUMET HARBOR           300/  3/  5   N/A
MICHIGAN CITY     77      60/  8/ 10   N/A
BURNS HARBOR      76      50/  9/ 16 1012.2F
SAINT JOSEPH      80     180/  2/  3 1012.9F
SOUTH LAKE BUOY   75 77   50/ 14/ 17 1011.5          2/ 6
4 MI NW BRIDGMAN  76 78  140/  8/ 10 1012.4S         1
MICHIGAN CITY     77 77   60/ 10/ 12   N/A           1/ 2

$$
&&




USA.gov is the U.S. government's official web portal to all federal, state and local government web resources and services.